Location: Carbonear
(47.7333°N, 53.2500°W)
Time: 12:08:57
(UTC+00:00)

O/OREOS (USA 219) - Visible Passes

Search period start: 08 December 2022 00:00
Search period end: 18 December 2022 00:00
Orbit: 621 x 646 km, 72.0° (Epoch: 22 May)

Date Brightness Start Highest point End Pass type
(mag) Time Alt. Az. Time Alt. Az. Time Alt. Az.
08 Dec ? 07:09:32 12° E 07:09:32 12° E 07:10:37 10° ENE visible
08 Dec ? 08:47:04 74° W 08:47:15 75° WNW 08:51:46 10° NNE visible
08 Dec ? 10:25:22 10° WNW 10:27:30 13° NW 10:29:37 10° NNW visible
09 Dec ? 07:32:31 18° ENE 07:32:31 18° ENE 07:33:58 10° NE visible
09 Dec ? 09:10:02 35° NW 09:10:02 35° NW 09:13:38 10° NNE visible
10 Dec ? 07:55:07 19° NE 07:55:07 19° NE 07:56:27 10° NNE visible
10 Dec ? 09:32:37 20° NW 09:32:37 20° NW 09:35:14 10° N visible
11 Dec ? 08:17:29 17° NNE 08:17:29 17° NNE 08:18:34 10° NNE visible
11 Dec ? 09:54:58 12° NNW 09:54:58 12° NNW 09:56:13 10° NNW visible
12 Dec ? 08:39:40 14° N 08:39:40 14° N 08:40:24 10° N visible
13 Dec ? 09:01:44 11° N 09:01:44 11° N 09:01:57 10° N visible
